2023/04/20 00:00:00, 0.0,15.9
2023/04/20 00:10:00, 0.0,15.8
2023/04/20 00:20:00, 0.0,15.7
2023/04/20 00:30:00, 0.0,15.8
2023/04/20 00:40:00, 0.0,15.7
2023/04/20 00:50:00, 0.0,15.5
2023/04/20 01:00:00, 0.0,15.7
2023/04/20 01:10:00, 0.0,15.8
2023/04/20 01:20:00, 0.0,15.7
2023/04/20 01:30:00, 0.0,15.9
2023/04/20 01:40:00, 0.0,15.7
2023/04/20 01:50:00, 0.0,15.7
2023/04/20 02:00:00, 0.0,15.7
2023/04/20 02:10:00, 0.0,15.6
2023/04/20 02:20:00, 0.0,15.6
2023/04/20 02:30:00, 0.0,15.6
2023/04/20 02:40:00, 0.0,15.6
2023/04/20 02:50:00, 0.0,15.0
2023/04/20 03:00:00, 0.0,14.9
2023/04/20 03:10:00, 0.0,15.0
2023/04/20 03:20:00, 0.0,15.2
2023/04/20 03:30:00, 0.0,15.2
2023/04/20 03:40:00, 0.0,15.1
2023/04/20 03:50:00, 0.0,14.6
2023/04/20 04:00:00, 0.0,14.2
2023/04/20 04:10:00, 0.0,14.3
2023/04/20 04:20:00, 0.0,14.0
2023/04/20 04:30:00, 0.0,14.3
2023/04/20 04:40:00, 0.0,14.1
2023/04/20 04:50:00, 0.0,13.8
2023/04/20 05:00:00, 0.0,13.7
2023/04/20 05:10:00, 0.0,13.8
2023/04/20 05:20:00, 0.0,13.7
2023/04/20 05:30:00, 0.0,14.2
2023/04/20 05:40:00, 0.0,14.6
2023/04/20 05:50:00, 0.0,14.4
2023/04/20 06:00:00, 0.0,14.7
2023/04/20 06:10:00, 0.0,15.2
2023/04/20 06:20:00, 0.0,15.3
2023/04/20 06:30:00, 0.0,15.8
2023/04/20 06:40:00, 0.0,16.0
2023/04/20 06:50:00, 0.0,16.8
2023/04/20 07:00:00, 0.0,17.1
2023/04/20 07:10:00, 0.0,17.4
2023/04/20 07:20:00, 0.0,18.4
2023/04/20 07:30:00, 0.0,19.1
2023/04/20 07:40:00, 0.0,19.9
2023/04/20 07:50:00, 0.0,21.1
2023/04/20 08:00:00, 0.0,21.9
2023/04/20 08:10:00, 0.0,22.8
2023/04/20 08:20:00, 0.0,23.3
2023/04/20 08:30:00, 0.0,23.6
2023/04/20 08:40:00, 0.0,23.6
2023/04/20 08:50:00, 0.0,23.8
2023/04/20 09:00:00, 0.0,24.4
2023/04/20 09:10:00, 0.0,24.0
2023/04/20 09:20:00, 0.0,24.6
2023/04/20 09:30:00, 0.0,24.7
2023/04/20 09:40:00, 0.0,24.7
2023/04/20 09:50:00, 0.0,25.5
2023/04/20 10:00:00, 0.0,26.5
2023/04/20 10:10:00, 0.0,25.3
2023/04/20 10:20:00, 0.0,26.2
2023/04/20 10:30:00, 0.0,26.9
2023/04/20 10:40:00, 0.0,26.9
2023/04/20 10:50:00, 0.0,27.3
2023/04/20 11:00:00, 0.0,27.3
2023/04/20 11:10:00, 0.0,27.9
2023/04/20 11:20:00, 0.0,27.9
2023/04/20 11:30:00, 0.0,29.7
2023/04/20 11:40:00, 0.0,28.3
2023/04/20 11:50:00, 0.0,27.9
2023/04/20 12:00:00, 0.4,27.3
2023/04/20 12:10:00, 0.7,26.5
2023/04/20 12:20:00, 1.8,26.6
2023/04/20 12:30:00, 1.6,26.7
2023/04/20 12:40:00, 0.9,27.4
2023/04/20 12:50:00, 0.7,27.2
2023/04/20 13:00:00, 1.1,27.6
2023/04/20 13:10:00, 0.2,27.3
2023/04/20 13:20:00, 0.0,27.6
2023/04/20 13:30:00, 0.0,27.9
2023/04/20 13:40:00, 0.2,27.6
2023/04/20 13:50:00, 0.0,28.2
2023/04/20 14:00:00, 0.0,28.8
2023/04/20 14:10:00, 0.0,30.3
2023/04/20 14:20:00, 0.0,30.8
2023/04/20 14:30:00, 0.0,30.3
2023/04/20 14:40:00, 0.0,29.7
2023/04/20 14:50:00, 0.0,30.2
2023/04/20 15:00:00, 0.0,28.8
2023/04/20 15:10:00, 0.0,29.7
2023/04/20 15:20:00, 0.0,28.6
2023/04/20 15:30:00, 0.0,27.6
2023/04/20 15:40:00, 0.0,25.1
2023/04/20 15:50:00, 0.0,24.9
2023/04/20 16:00:00, 0.6,26.2
2023/04/20 16:10:00, 0.7,26.1
2023/04/20 16:20:00, 0.0,25.6
2023/04/20 16:30:00, 0.0,24.4
2023/04/20 16:40:00, 0.0,24.5
2023/04/20 16:50:00, 0.0,24.3
2023/04/20 17:00:00, 0.0,24.7
2023/04/20 17:10:00, 0.0,24.0
2023/04/20 17:20:00, 0.0,24.0
2023/04/20 17:30:00, 0.0,24.5
2023/04/20 17:40:00, 0.6,23.9
2023/04/20 17:50:00, 1.5,22.9
2023/04/20 18:00:00, 2.4,22.1
2023/04/20 18:10:00, 2.1,21.1
2023/04/20 18:20:00, 1.8,20.2
2023/04/20 18:30:00, 1.2,19.5
2023/04/20 18:40:00, 0.4,19.0
2023/04/20 18:50:00, 0.0,18.5
2023/04/20 19:00:00,32.1,18.1
2023/04/20 19:10:00,16.1,17.4
2023/04/20 19:20:00,11.0,16.8
2023/04/20 19:30:00,25.8,16.6
2023/04/20 19:40:00, 0.6,16.2
2023/04/20 19:50:00, 0.8,15.9
2023/04/20 20:00:00, 1.7,16.0
2023/04/20 20:10:00,26.5,16.7
2023/04/20 20:20:00, 0.0,16.7
2023/04/20 20:30:00, 3.7,17.1
2023/04/20 20:40:00,28.7,17.0
2023/04/20 20:50:00,30.6,16.6
2023/04/20 21:00:00, 3.5,16.5
2023/04/20 21:10:00, 0.0,17.4
2023/04/20 21:20:00, 0.0,16.8
2023/04/20 21:30:00, 3.7,17.3
2023/04/20 21:40:00, 6.0,17.3
2023/04/20 21:50:00, 4.2,16.9
2023/04/20 22:00:00,14.0,16.8
2023/04/20 22:10:00,26.0,16.8
2023/04/20 22:20:00,---,16.3
2023/04/20 22:30:00,---,16.1
2023/04/20 22:40:00,28.3,16.0
2023/04/20 22:50:00,---,15.9
2023/04/20 23:00:00,23.9,15.9
2023/04/20 23:10:00,---,15.6
2023/04/20 23:20:00,---,15.4
2023/04/20 23:30:00,---,15.9
2023/04/20 23:40:00,---,15.7
2023/04/20 23:50:00,---,15.4
